Weather in Slovinka

Russia / Kostroma Oblast     58°01′50″N   43°07′09″E
temp.,
°C
wind,
m/s
gust,
m/s
humid.,
%
clouds,
%
prec.,
mm/h
press.,
hPa
HPBL,
m
12 may, wed
wed1200:00+9e22775 0.0 102918
03:00+8ne11865 0.0 102910
06:00+11ene23780 0.0 102987
09:00+18ene23611 0.0 1029476
12:00+22e34480 0.0 1027991
15:00+24e35433 0.0 10261735
18:00+22e37595 0.0 1024405
21:00+16e39817 0.0 1024176
13 may, thu
thu1300:00+13sse248466 0.0 102561
03:00+12e118687 0.0 102512
06:00+15e257940 0.0 1024147
09:00+19ese366286 0.0 1024493
12:00+21se47537 0.0 10231401
15:00+19se286146 0.0 1020243
18:00+20sse51061100 0.1 10191037
21:00+15ese3119083 1.2 1018363
14 may, fri
fri1400:00+14sse31096100 2.3 1018574
03:00+14s259855 3.1 1018240
06:00+14ssw269760 0.0 1019242
09:00+18ssw367793 0.0 1019815
12:00+21sw4758100 0.0 10191527
15:00+20ssw3562100 0.2 10191184
18:00+19ssw247228 0.4 1018427
21:00+15ese11905 0.6 101711
15 may, sat
sat1500:00+13sse2296100 1.3 101732
03:00+14e2396100 2.8 101662
06:00+15se31095100 0.1 1015330
09:00+20se3682100 0.1 1014461
12:00+25sse475489 0.0 10131283
15:00+26s585258 0.0 10111762
18:00+22s5116576 0.3 1010734
21:00+17ssw312915 2.6 1011426
16 may, sun
sun1600:00+15sse299781 0.0 1010224
03:00+15sse310979 0.3 1010261
06:00+15s310956 0.0 1010310
09:00+20ssw58700 0.0 1010996
12:00+21sw685831 0.3 10111803
15:00+20sw5106112 0.9 10111642
18:00+19wsw59641 0.1 10121474
21:00+14wsw411805 0.1 1013527